Retour au catalogue

DMSP 5D-2 F13 DEB

ActifSSO
NORAD 40504·DEBRIS·🇺🇸 United States

Lancé Mar 24, 1995 depuis Vandenberg Space Force Base

Loading…

Prochains Passages (prochaines 24 heures)

TLE

FraisSource: Space-Track

Époque: Sep 12, 2026, 11:15 UTC

1 40504U 95015CT  26255.46926530  .00001666  00000-0  78362-3 0  9996
2 40504  99.0377 264.0565 0044774 227.5381 132.2006 14.20905859591385

Suivez DMSP 5D-2 F13 DEB en temps réel avec AllMySat

Download on the App Store